Terrell, TX

12:17 AM CDT on July 27, 2017 (GMT -0500)
Terrell Municipal

Weather History for KTRL - May, 2013

Change the Weather History Date:

Thursday, May 16, 2013

  Actual Average (KGVT) Record (KGVT)
Temperature  
Mean Temperature 71 °F -  
Max Temperature 80 °F 80 °F 93 °F (2003)
Min Temperature 62 °F 65 °F 50 °F (2006)
Cooling Degree Days 6    
Growing Degree Days 21 (Base 50)    
Moisture  
Dew Point 65 °F    
Average Humidity 90    
Maximum Humidity 100    
Minimum Humidity 70    
Precipitation  
Precipitation 1.46 in - - ()
Sea Level Pressure  
Sea Level Pressure 29.83 in    
Wind  
Wind Speed 11 mph (SSE)    
Max Wind Speed 23 mph    
Max Gust Speed 32 mph    
Visibility 8 miles    
Events Fog , Rain , Thunderstorm    
Averages and records for this station are not official NWS values.
T = Trace of Precipitation, MM = Missing Value Source: NWS Daily Summary

Daily Weather History Graph

Daily Weather History Graph

Search for Another Location

Airport or City:

Trip Planner

Search our weather history database for the weather conditions in past years. The results will help you decide how hot, cold, wet, or windy it might be!

Date:

Astronomy

May. 16, 2013 Rise Set
Actual Time 6:25 AM CDT 8:17 PM CDT
Civil Twilight 5:58 AM CDT 8:45 PM CDT
Nautical Twilight 5:25 AM CDT 9:18 PM CDT
Astronomical Twilight 4:50 AM CDT 9:53 PM CDT
Moon 11:53 AM CDT (5/16) 12:44 AM CDT (5/16)
Length of Visible Light 14h 46m
Length of Day
13h 52m
Waxing Crescent, 36% of the Moon is Illuminated
May 16
Waxing Crescent
May 17
First Quarter
May 24
Full
May 31
Last Quarter
Jun 8
New

Hourly Weather History & Observations

Time (CDT) Temp. Heat Index Dew Point Humidity Pressure Visibility Wind Dir Wind Speed Gust Speed Precip Events Conditions
12:04 AM 66.2 °F - 64.4 °F 94% 29.91 in 7.0 mi North 17.3 mph 32.2 mph 0.03 in Rain , Thunderstorm Thunderstorms and Rain
12:07 AM 64.4 °F - 62.6 °F 94% 29.92 in 2.0 mi North 17.3 mph 32.2 mph 0.17 in Rain , Thunderstorm Heavy Thunderstorms and Rain
12:09 AM 64.4 °F - 62.6 °F 94% 29.93 in 1.2 mi NNE 23.0 mph 32.2 mph 0.29 in Rain , Thunderstorm Heavy Thunderstorms and Rain
12:11 AM 62.6 °F - 60.8 °F 94% 29.94 in 0.8 mi NNE 19.6 mph 28.8 mph 0.44 in Rain , Thunderstorm Heavy Thunderstorms and Rain
12:18 AM 62.6 °F - 62.6 °F 100% 29.93 in 0.5 mi NNW 9.2 mph 25.3 mph 0.97 in Fog , Rain , Thunderstorm Heavy Thunderstorms and Rain
12:23 AM 62.6 °F - 62.6 °F 100% 29.93 in 0.8 mi North 9.2 mph 20.7 mph 1.22 in Rain , Thunderstorm Heavy Thunderstorms and Rain
12:30 AM 62.6 °F - 62.6 °F 100% 29.93 in 1.8 mi NNW 5.8 mph - 1.31 in Rain , Thunderstorm Heavy Thunderstorms and Rain
12:34 AM 62.6 °F - 62.6 °F 100% 29.93 in 2.0 mi NNW 3.5 mph - 1.35 in Rain , Thunderstorm Heavy Thunderstorms and Rain
12:48 AM 62.6 °F - 62.6 °F 100% 29.91 in 5.0 mi ESE 5.8 mph - 1.39 in Rain , Thunderstorm Light Thunderstorms and Rain
12:53 AM 62.1 °F - 62.1 °F 100% 29.88 in 8.0 mi ENE 9.2 mph - 1.40 in Rain , Thunderstorm Light Thunderstorms and Rain
1:27 AM 62.6 °F - 62.6 °F 100% 29.82 in 8.0 mi ESE 8.1 mph 24.2 mph 0.06 in Rain Rain
1:36 AM 62.6 °F - 62.6 °F 100% 29.84 in 10.0 mi South 4.6 mph - 0.06 in Rain , Thunderstorm Light Rain
1:53 AM 64.0 °F - 62.1 °F 93% 29.83 in 10.0 mi SE 8.1 mph - 0.06 in Thunderstorm Scattered Clouds
2:09 AM 64.4 °F - 62.6 °F 94% 29.84 in 10.0 mi East 9.2 mph - 0.00 in Rain Light Rain
2:30 AM 64.4 °F - 62.6 °F 94% 29.80 in 10.0 mi ESE 11.5 mph - 0.00 in Rain , Thunderstorm Light Rain
2:45 AM 62.6 °F - 62.6 °F 100% 29.80 in 10.0 mi East 5.8 mph 16.1 mph 0.00 in   Partly Cloudy
2:53 AM 63.0 °F - 62.1 °F 97% 29.79 in 10.0 mi SSE 4.6 mph - 0.00 in   Clear
3:27 AM 62.6 °F - 62.6 °F 100% 29.81 in 10.0 mi SSW 5.8 mph - N/A   Mostly Cloudy
3:53 AM 63.0 °F - 62.1 °F 97% 29.78 in 10.0 mi SE 3.5 mph - N/A   Overcast
4:51 AM 62.6 °F - 62.6 °F 100% 29.81 in 10.0 mi South 8.1 mph - N/A   Partly Cloudy
4:53 AM 63.0 °F - 62.1 °F 97% 29.80 in 10.0 mi South 8.1 mph - N/A   Partly Cloudy
5:53 AM 63.0 °F - 62.1 °F 97% 29.82 in 10.0 mi SSW 4.6 mph - N/A Thunderstorm Overcast
6:02 AM 62.6 °F - 62.6 °F 100% 29.83 in 10.0 mi South 4.6 mph - N/A Thunderstorm Overcast
6:16 AM 62.6 °F - 62.6 °F 100% 29.83 in 10.0 mi South 5.8 mph - N/A   Overcast
6:53 AM 63.0 °F - 62.1 °F 97% 29.80 in 10.0 mi SSE 9.2 mph - N/A   Scattered Clouds
7:53 AM 64.0 °F - 63.0 °F 96% 29.83 in 10.0 mi South 6.9 mph - N/A   Clear
8:53 AM 68.0 °F - 64.0 °F 87% 29.82 in 10.0 mi South 13.8 mph - N/A   Partly Cloudy
9:23 AM 69.8 °F - 64.4 °F 83% 29.83 in 10.0 mi South 15.0 mph 20.7 mph N/A   Mostly Cloudy
9:53 AM 69.1 °F - 64.9 °F 87% 29.82 in 10.0 mi South 12.7 mph - N/A   Overcast
10:30 AM 71.6 °F - 64.4 °F 78% 29.83 in 10.0 mi South 12.7 mph - N/A   Overcast
10:53 AM 71.1 °F - 66.0 °F 84% 29.83 in 10.0 mi South 9.2 mph - N/A   Overcast
11:20 AM 71.6 °F - 66.2 °F 83% 29.85 in 10.0 mi South 8.1 mph - N/A   Overcast
11:53 AM 72.0 °F - 66.9 °F 84% 29.84 in 10.0 mi South 5.8 mph - N/A   Overcast
12:53 PM 73.0 °F - 68.0 °F 84% 29.83 in 10.0 mi SSE 4.6 mph - N/A   Overcast
1:53 PM 73.9 °F - 69.1 °F 85% 29.82 in 10.0 mi South 6.9 mph - N/A   Overcast
2:16 PM 78.8 °F - 69.8 °F 74% 29.82 in 10.0 mi South 12.7 mph 21.9 mph N/A   Mostly Cloudy
2:53 PM 78.1 °F - 68.0 °F 71% 29.80 in 10.0 mi South 15.0 mph 24.2 mph N/A   Mostly Cloudy
3:11 PM 77.0 °F - 68.0 °F 74% 29.81 in 10.0 mi South 17.3 mph 24.2 mph N/A   Mostly Cloudy
3:53 PM 79.0 °F - 70.0 °F 74% 29.78 in 10.0 mi South 15.0 mph - N/A   Mostly Cloudy
5:16 PM 80.6 °F 83.9 °F 69.8 °F 70% 29.78 in 10.0 mi South 12.7 mph - N/A   Scattered Clouds
5:53 PM 79.0 °F - 69.1 °F 72% 29.76 in 10.0 mi South 9.2 mph - N/A   Partly Cloudy
6:53 PM 79.0 °F - 70.0 °F 74% 29.76 in 9.0 mi SSE 8.1 mph - N/A   Partly Cloudy
7:53 PM 77.0 °F - 70.0 °F 79% 29.75 in 8.0 mi SSE 8.1 mph - N/A   Clear
8:53 PM 73.9 °F - 70.0 °F 87% 29.76 in 8.0 mi SE 3.5 mph - N/A   Clear